Location: Demmingen
(48.6757°N, 10.4375°E)
Time: 22:02:54
(UTC+00:00)

Cosmos 2322 Rocket - Pass Details

Date: 23 May 2024
Orbit: 832 x 850 km, 71.0° (Epoch: 14 June)

Event Time Altitude Azimuth Distance (km) Brightness Sun altitude
Rises 02:35:44 0° 323° (NW) 3,402 5.4 -7.5°
Reaches altitude 10° 02:38:32 10° 311° (NW) 2,466 4.6 -7.2°
Maximum altitude 02:43:07 26° 257° (WSW) 1,605 3.2 -6.6°
Drops below altitude 10° 02:47:41 10° 203° (SSW) 2,461 4.1 -6.1°
Sets 02:50:29 0° 191° (S) 3,394 4.9 -5.7°
